User: anonymous   Login
Location: Caltech
(34.1382°N, 118.1253°W)
Time: 11:55:38
(UTC-07:00)
Language:

Iridium 91 - Orbit

View from above orbital plane
View from above orbital plane
View from above satellite
View from above satellite

Ground track
Ground track

The orbit data is extracted from the following two-line orbital elements,

1 27372U 02005A   17173.90500958 +.00000125 +00000-0 +37509-4 0  9999
2 27372 086.3969 284.7682 0002606 086.0647 052.8490 14.34215552812399
Epoch (UTC): 22 June 2017 21:43:12
Eccentricity: 0.0002606
inclination: 86.3969°
perigee height: 776 km
apogee height: 779 km
right ascension of ascending node: 284.7682°
argument of perigee: 86.0647°
revolutions per day: 14.34215552
mean anomaly at epoch: 52.8490°
orbit number at epoch: 81239

The dashed part of the orbit path shows where the satellite is in the earth's shadow,  

DLR